Flag for Austria Weather past 2 weeks in Knittelfeld, Styria, Austria

Now
54 °F

Passing clouds.


Feels Like: 54 °F
Forecast: 38 / 49 °F
Wind: 2 mph from North

Location: Zeltweg

Current Time: Apr 22, 2015 at 2:10:18 AM

Latest Report: Apr 21, 2015 at 10:50 PM


Visibility: 12 mi

Pressure: 30.24 "Hg

Humidity: 41%

Dew point: 30 °F

Location of KnittelfeldLocation

Historic Weather in Knittelfeld — Graph

°F

Knittelfeld temperature yesterday

Maximum temperature yesterday: 64 °F (at 4:20 PM)
Minimum temperature yesterday: 41 °F (at 6:20 AM)
Average temperature yesterday: 55 °F

Past Weeks' High & Low Weather Summary

 TemperatureHumidityPressure
High73 °F (Apr 16, 1:50 PM)100% (Apr 7, 8:20 AM)30.45 "Hg (Apr 7, 8:20 AM)
Low21 °F (Apr 7, 6:50 AM)14% (Apr 16, 5:50 PM)29.83 "Hg (Apr 17, 1:20 PM)
Average51 °F55%30.22 "Hg
* Reported Apr 6 10:50 PM — Apr 21 10:50 PM, Knittelfeld, Weather by CustomWeather, © 2015

Note: Actual official high and low records may vary slightly from our data, if they occured in-between our weather recording intervals... More about our weather records

Advertising

Knittelfeld weather history for previous 24 hours

 ConditionsComfort  
Time TempWeatherWind HumidityBarometerVisibility
10:50 PM
Tue, Apr 21
54 °FPassing clouds.2 mph41%30.24 "Hg12 mi
9:50 PM50 °FPassing clouds.5 mph47%30.24 "Hg12 mi
9:20 PM50 °FPassing clouds.6 mph50%30.24 "Hg16 mi
8:50 PM55 °FPassing clouds.7 mph38%30.21 "Hg16 mi
8:20 PM55 °FPassing clouds.9 mph38%30.21 "Hg19 mi
7:50 PM59 °FPassing clouds.13 mph31%30.21 "Hg25 mi
7:20 PM61 °FPassing clouds.12 mph29%30.18 "Hg25 mi
6:50 PM61 °FPassing clouds.15 mph29%30.18 "Hg31 mi
6:20 PM63 °FPassing clouds.8 mph30%30.18 "Hg31 mi
5:50 PM63 °FPassing clouds.10 mph25%30.18 "Hg31 mi
5:20 PM63 °FPassing clouds.13 mph27%30.18 "Hg31 mi
4:50 PM64 °FPassing clouds.8 mph22%30.18 "Hg31 mi
4:20 PM64 °FPassing clouds.15 mph24%30.18 "Hg31 mi
3:50 PM63 °FPassing clouds.6 mph22%30.21 "Hg31 mi
3:20 PM63 °FPassing clouds.6 mph27%30.21 "Hg31 mi
2:50 PM63 °FPassing clouds.7 mph27%30.21 "Hg31 mi
2:20 PM63 °FPassing clouds.8 mph25%30.24 "Hg31 mi
1:50 PM63 °FPassing clouds.6 mph27%30.24 "Hg31 mi
1:20 PM63 °FPassing clouds.5 mph25%30.24 "Hg31 mi
12:50 PM59 °FPassing clouds.10 mph31%30.21 "Hg31 mi
12:20 PM59 °FPassing clouds.10 mph34%30.24 "Hg31 mi
11:50 AM59 °FScattered clouds.7 mph31%30.24 "Hg31 mi
11:20 AM59 °FPartly sunny.7 mph36%30.24 "Hg31 mi
10:50 AM55 °FPartly sunny.6 mph41%30.24 "Hg31 mi
10:20 AM55 °FPartly sunny.7 mph36%30.24 "Hg31 mi
9:50 AM55 °FPartly sunny.13 mph38%30.24 "Hg31 mi
9:20 AM54 °FPartly sunny.5 mph51%30.24 "Hg31 mi
8:50 AM46 °FPartly sunny.6 mph62%30.24 "Hg25 mi
8:20 AM46 °FPartly sunny.2 mph62%30.24 "Hg25 mi
7:50 AM45 °FPartly sunny.2 mph66%30.24 "Hg25 mi
7:20 AM43 °FPartly sunny.1 mph71%30.24 "Hg19 mi
6:50 AM41 °FPassing clouds.3 mph70%30.21 "Hg19 mi
6:20 AM41 °FPassing clouds.6 mph70%30.21 "Hg19 mi
5:50 AM43 °FPassing clouds.3 mph66%30.21 "Hg19 mi
4:50 AM43 °FPassing clouds.2 mph61%30.18 "Hg19 mi
Weather by CustomWeather, © 2015

See weather overviewHow to use our weather pages